Airfield :
LOGIN :

Register | Disclaimer

   EN    FR    IT 

 










Legend :    VFR   Marginal VFR   IFR   Intensive IFR   Very Intensive IFR
Visi :
Ceiling :
>= 8 km
>= 3000ft
5 to 8 km
1000 to 3000 ft
1500m to 5 km
500 to 1000 ft
800 to 1500m
200 to 500 ft
< 800m
< 200 ft
Symbols :   Thunderstorms  Fog  Heavy snow  Heavy precipitations  Wind > 20 kt
SIGMETs :     Misc.  Thunderstorms  Icing  Turbulence  Mountain Waves  Volcanic Ashes






- Airport Elevation : 127 ft
- IATA code : JTR


LGSR - Santorini

CURRENT METAR :
  • 121750Z 33015KT CAVOK 27/18 Q1010

EXPIRED METARs :
  • 121720Z 33017KT CAVOK 29/18 Q1010
  • 121650Z 33017KT CAVOK 29/18 Q1010
  • 121620Z 34017KT CAVOK 29/26 Q1010
  • 121550Z 34017KT CAVOK 29/18 Q1010

TAF TAF LGSR
Valid from the 12 at 18:00 until the 13 at 18:00 UTC


121700Z 1218/1318 34018KT 9999 FEW020
TEMPO 1218/1318 33018G28KT



MET'MAP, your aeronautical weather chart ! - Copyright ORBIFLY December 2007 - Disclaimer

ORBIFLY MET'MAP TEAM :

Programming & Development : Alexandra Zaïnal
Concept & original design : Baudouin d'Aumeries
Assistance for programming : Marc-Olivier Méhu
Technical & hardware support : Manuel Goepfert

Contact : metmap@orbifly.com




SOURCES & CREDITS :

   NOAA